CHIUDI BANNER

LIVE Streaming HD
Get Adobe Flash player
Dati meteo stazione (refresh automatico ogni minuto)
Senigallia(AN) VENTO: VELOCITÀ   PIOGGIA: QTA GIORNO TEMPERATURA: ATTUALE
SPOT: Darsena Di Senigallia RAFFICA MASSIMA: QTA MENSILE: MASSIMA:
VELOCITÀ MEDIA: QTA ANNUALE: MINIMA:
DIREZIONE: UMIDITÀ: WIND CHILL:
TIPO: DEW POINT:
BEAUFORT: PRESSIONE:
I nostri partner
Senigallia(AN) nelle ultime ore
Applica filtri in visualizzazione Intervallo delle letture nelle ultime

Ora Direzione Vento Velocita' Vento Media Vento Raffica Max. Temperatura Wind Chill Pioggia Pressione
03:13:02229 °(SW)1.7 Kts3.5 Kts11.3 Kts-67.8 °C-67.8 °C0 mm1023.5 Hpa
03:07:40229 °(SW)2.6 Kts2.6 Kts11.3 Kts-67.8 °C-67.8 °C0 mm1023.5 Hpa
03:02:51217 °(SW)3.5 Kts1.7 Kts11.3 Kts-67.8 °C-67.8 °C0 mm1023.5 Hpa
02:58:03217 °(SW)1.7 Kts0.9 Kts11.3 Kts-67.8 °C-67.8 °C0 mm1023.6 Hpa
02:52:41234 °(SW)0 Kts0 Kts11.3 Kts-67.8 °C-67.8 °C0 mm1023.6 Hpa
02:47:47234 °(SW)0 Kts0 Kts11.3 Kts-67.8 °C-67.8 °C0 mm1023.5 Hpa
02:42:50234 °(SW)0 Kts0.9 Kts11.3 Kts-67.8 °C-67.8 °C0 mm1023.5 Hpa
02:37:54234 °(SW)0 Kts1.7 Kts11.3 Kts-67.8 °C-67.8 °C0 mm1023.4 Hpa
02:33:07234 °(SW)2.6 Kts2.6 Kts11.3 Kts-67.8 °C-67.8 °C0 mm1023.4 Hpa
02:27:41234 °(SW)1.7 Kts1.7 Kts11.3 Kts-67.8 °C-67.8 °C0 mm1023.4 Hpa
02:22:54240 °(WSW)2.6 Kts1.7 Kts11.3 Kts-67.8 °C-67.8 °C0 mm1023.4 Hpa
02:18:04240 °(WSW)0.9 Kts1.7 Kts11.3 Kts-67.8 °C-67.8 °C0 mm1023.2 Hpa
02:13:11240 °(WSW)1.7 Kts1.7 Kts11.3 Kts-67.8 °C-67.8 °C0 mm1023.4 Hpa
02:08:06240 °(WSW)1.7 Kts2.6 Kts11.3 Kts-67.8 °C-67.8 °C0 mm1023.4 Hpa
02:03:08240 °(WSW)2.6 Kts2.6 Kts11.3 Kts-67.8 °C-67.8 °C0 mm1023.3 Hpa
01:57:47240 °(WSW)1.7 Kts2.6 Kts11.3 Kts-67.8 °C-67.8 °C0 mm1023.2 Hpa
01:52:56257 °(WSW)2.6 Kts1.7 Kts11.3 Kts-67.8 °C-67.8 °C0 mm1023.2 Hpa
01:48:06257 °(WSW)1.7 Kts0.9 Kts11.3 Kts-67.8 °C-67.8 °C0 mm1023.2 Hpa
01:42:41257 °(WSW)0 Kts0.9 Kts11.3 Kts-67.8 °C-67.8 °C0 mm1023.4 Hpa
01:38:09257 °(WSW)0 Kts2.6 Kts11.3 Kts-67.8 °C-67.8 °C0 mm1023.4 Hpa
01:32:47257 °(WSW)1.7 Kts2.6 Kts11.3 Kts-67.8 °C-67.8 °C0 mm1023.5 Hpa
01:27:58257 °(WSW)1.7 Kts3.5 Kts11.3 Kts-67.8 °C-67.8 °C0 mm1023.4 Hpa
01:23:11240 °(WSW)1.7 Kts4.3 Kts11.3 Kts-67.8 °C-73.3 °C0 mm1023.2 Hpa
01:17:53248 °(WSW)3.5 Kts3.5 Kts11.3 Kts-67.8 °C-67.8 °C0 mm1023.2 Hpa